Regional Weather Roundup
Issued by NWS Burlington, VT

Current Version | Previous Version | Text Only | Print | Product List | Glossary On
Versions: 1 2 3 4 5 6 7 8 9 10 11 12 13 14 15 16 17 18 19 20 21 22 23 24 25 26 27 28 29 30 31 32 33 34 35 36 37 38 39 40 41 42 43 44 45 46 47 48 49 50
000
ASUS41 KBTV 312230
RWRBTV
VERMONT REGIONAL WEATHER ROUNDUP
NATIONAL WEATHER SERVICE BURLINGTON VT
500 PM EST SAT JAN 31 2015

NOTE: "FAIR" INDICATES FEW OR NO CLOUDS BELOW 12,000 FEET WITH NO
SIGNIFICANT WEATHER AND/OR OBSTRUCTIONS TO VISIBILITY.

* THESE REPORTS ARE NOT UNDER NWS QUALITY CONTROL AND/OR DO NOT
  REPORT WEATHER SUCH AS PRECIPITATION AND FOG.

VTZ001>019-312300-
_____VERMONT_____


CITY           SKY/WX    TMP DP  RH WIND       PRES   REMARKS
BURLINGTON     CLEAR      6 -12  43 N8        30.14R
MONTPELIER     CLEAR      4 -12  48 NW15G22   30.03S WCI -14
MORRISVILLE    CLEAR      3 -12  49 N8        30.09R
ST. JOHNSBURY*   N/A      5 -14  41 MISG      30.03R
LYNDONVILLE*   FAIR       1 -18  39 W7        30.01R
MIDDLEBURY*    FAIR       5 -10  49 CALM      30.11S
RUTLAND*       CLEAR      7  -9  47 NW9       30.07R
SPRINGFIELD    CLEAR     11  -9  40 W12G21    30.03S WCI  -3
HIGHGATE*      FAIR       2 -13  49 CALM      30.17R
NEWPORT*       FAIR      -2 -14  56 NW7       30.05R
BENNINGTON     CLEAR     10  -8  44 NW7       30.07R
SUTTON*          N/A     -2 N/A N/A MISG        N/A
MT. MANSFIELD*   N/A     -8 N/A N/A CALM        N/A

_____LAKE CHAMPLAIN_____


CITY           SKY/WX    TMP DP  RH WIND       PRES   REMARKS
BURTON ISLAND*   N/A      7  -8  51 NW3         N/A
COLCHESTER RF*   N/A      9  -2  61 E16         N/A  WCI  -9
DIAMOND ISL*     N/A     10  -6  48 SE5         N/A

$$

NYZ007-026>031-035-052-083-312300-
_____NORTHERN NEW YORK_____


CITY           SKY/WX    TMP DP  RH WIND       PRES   REMARKS
PLATTSBURGH    CLEAR     11 -11  36 NW12      30.15R WCI  -3
SARANAC LAKE   CLEAR      3 -11  52 W5        30.03R
MASSENA        CLEAR      4 -11  50 SW12      30.23R WCI -12
OGDENSBURG*    CLEAR      5  -8  56 SW7       30.20F
POTSDAM*       CLEAR      3  -9  55 SW8       30.19F
WATERTOWN      CLOUDY    10  -1  61 S3        30.23F
FT DRUM        CLOUDY     5  -6  61 SW3       30.18F
ALBANY         CLEAR     14  -3  47 W21G30    30.15R WCI  -4
GLENS FALLS    CLEAR     10  -5  50 CALM      30.14R

$$
NHZ002-005-011-312300-
_____NEW HAMPSHIRE_____


CITY           SKY/WX    TMP DP  RH WIND       PRES   REMARKS
LEBANON        CLEAR     12  -8  40 N8        30.02R
KEENE          CLEAR     12  -8  40 N7        30.02R
MT WASHINGTON  PTCLDY    -6 -15  65 NW89G101    N/A  WCI -45
PLYMOUTH       FAIR       8  -7  48 NW17G24   29.98R WCI -10
WHITEFIELD     CLEAR      3 -12  49 W5        29.99R

$$

_____REGIONAL QUEBEC LOCATIONS_____


CITY           SKY/WX    TMP DP  RH WIND       PRES   REMARKS
MONTREAL       CLEAR      1 -13  51 W14G21    30.17S WCI -17
QUEBEC CITY    PTCLDY     5  -8  56 W17       29.99R WCI -14
SHERBROOKE     CLEAR     -2 -13  60 W9        30.03R

_____REGIONAL ONTARIO LOCATIONS_____


CITY           SKY/WX    TMP DP  RH WIND       PRES   REMARKS
OTTAWA         PTCLDY     5  -9  51 S3        30.17F

______KEY______
VSB  - VISIBILITY IN MILES
WCI  - WIND CHILL INDEX
HX   - HEAT INDEX
$$
NNNN


USA.gov is the U.S. government's official web portal to all federal, state and local government web resources and services.